Regional Weather Roundup
Issued by NWS Upton, NY

Current Version | Previous Version | Graphics & Text | Print | Product List | Glossary Off
Versions: 1 2 3 4 5 6 7 8 9 10 11 12 13 14 15 16 17 18 19 20 21 22 23 24 25 26 27 28 29 30 31 32 33 34 35 36 37 38 39 40 41 42 43 44 45 46

000
ASUS41 KOKX 221805
RWROKX

REGIONAL WEATHER ROUNDUP
NATIONAL WEATHER SERVICE NEW YORK NY
100 PM EST MON DEC 22 2014

NOTE: "FAIR" INDICATES FEW OR NO CLOUDS BELOW 12,000 FEET WITH NO
SIGNIFICANT WEATHER AND/OR OBSTRUCTIONS TO VISIBILITY.

NYZ071-072-176-178-NJZ106-104-221900-
NEW YORK CITY METRO AREA


CITY           SKY/WX    TMP DP  RH WIND       PRES   REMARKS
CENTRAL PARK   CLOUDY    41  35  79 NE7       30.28F
LAGUARDIA APRT CLOUDY    42  36  79 NE15      30.27S
KENNEDY INTL   CLOUDY    46  38  73 NE6       30.26F
NEWARK/LIBERTY CLOUDY    41  36  81 N9        30.25F
BRNX BOT. GARD   N/A     39  36  87 E3        30.28F
TETERBORO      CLOUDY    41  34  76 NE3       30.26F
$$

NYZ177-179-078>081-221900-
LONG ISLAND NEW YORK

CITY           SKY/WX    TMP DP  RH WIND       PRES   REMARKS
FARMINGDALE    CLOUDY    46  38  73 E7        30.25F
ISLIP          CLOUDY    45  37  73 E8        30.24F
SHIRLEY        CLOUDY    45  38  76 VRB5      30.27F
WESTHAMPTON    CLOUDY    46  40  79 E13       30.27F
MONTAUK POINT    N/A     45  39  79 NE12G18   30.28F
$$

NYZ052-065-067-221900-
HUDSON VALLEY

CITY           SKY/WX    TMP DP  RH WIND       PRES   REMARKS
WHITE PLAINS   PTSUNNY   42  35  76 E6        30.24F
NEWBURGH       CLOUDY    36  32  87 VRB5      30.27F FOG     WCI  32
MONTGOMERY     CLOUDY    36  31  82 NE5       30.25F WCI  32
POUGHKEEPSIE   CLOUDY    38  31  76 CALM      30.27F
ALBANY         CLOUDY    34  26  72 VRB5      30.30F WCI  30
$$

NJZ001-105-106-008-010-013-015-019>022-104-221900-
NEW JERSEY

CITY           SKY/WX    TMP DP  RH WIND       PRES   REMARKS
NEWARK/LIBERTY CLOUDY    41  36  81 N9        30.25F
TETERBORO      CLOUDY    41  34  76 NE3       30.26F
CALDWELL       CLOUDY    39  31  72 E6        30.26F WCI  35
MORRISTOWN     CLOUDY    39  34  81 CALM      30.26F
SOMERVILLE     CLOUDY    39  34  82 E3        30.23F HAZE
SUSSEX         CLOUDY    34  31  88 E5        30.25F FOG     WCI  30
ANDOVER          N/A     33  32  96 CALM      30.25F
TRENTON        CLOUDY    40  33  76 NE8       30.23F WCI  34
MILLVILLE      CLOUDY    42  35  76 NE6       30.21F
ATLANTIC CITY  CLOUDY    45  38  76 NE8       30.22F
WRIGHTSTOWN    NOT AVBL
TOMS RIVER     CLOUDY    43  37  81 NE10      30.24F
BELMAR         CLOUDY    41  34  75 N3        30.24F
$$

PAZ047>061-062-071-221900-
EASTERN PENNSYLVANIA

CITY           SKY/WX    TMP DP  RH WIND       PRES   REMARKS
PHILADELPHIA   CLOUDY    42  32  67 VRB3      30.24F
ALLENTOWN      CLOUDY    39  30  70 NE6       30.24F WCI  35
SCRANTON       PTSUNNY   43  29  57 VRB5      30.19F
$$

CTZ002-004>006-009-010-012-RIZ004-006-007-MAZ004-011-015-221900-
SOUTHERN NEW ENGLAND
 IN CT

CITY           SKY/WX    TMP DP  RH WIND       PRES   REMARKS
BRADLEY INTL   CLOUDY    40  32  73 N6        30.30F
HARTFORD       CLOUDY    40  33  76 VRB6      30.31F
DANBURY        CLOUDY    40  34  79 E6        30.26F
WTRBRY/OXFORD  CLOUDY    39  30  70 E8        30.28F WCI  34
BRIDGEPORT     CLOUDY    43  36  76 NE10      30.27F
MERIDEN        CLOUDY    42  34  73 N7        30.29F
NEW HAVEN      PTSUNNY   46  37  71 NE10      30.27F
CHESTER        CLOUDY    43  36  75 NE5       30.27F
GROTON         PTSUNNY   46  37  71 E14G23    30.27F
WILLIMANTIC    CLOUDY    44  34  67 E9        30.30F

 IN RI

CITY           SKY/WX    TMP DP  RH WIND       PRES   REMARKS
PROVIDENCE     CLOUDY    43  36  76 NE6       30.34S
BLOCK ISLAND   CLOUDY    45  39  81 NE10G18   30.30S
WESTERLY       CLOUDY    48  37  65 E12       30.31F

 IN MA

CITY           SKY/WX    TMP DP  RH WIND       PRES   REMARKS
BOSTON         LGT RAIN  44  39  82 N8        30.35R
WORCESTER      CLOUDY    36  31  82 E5        30.31S WCI  32
WESTFIELD      CLOUDY    38  33  82 N7        30.32F WCI  33
PROVINCETOWN   CLOUDY    46  36  66 SE8       30.33R
NANTUCKET      PTSUNNY   49  39  68 E14       30.31R
$$

ANZ330-335-338-340-345-350-353-355-221900-
COASTAL MARINE OBSERVATIONS


STATION/POSITION TIME  SKY/WX   TEMP    WIND        PRES    VSBY  WAVE
                                AIR SEA DIR/SP/G                  HT/PER
                 (UTC)          (F)     (DEG/KT/KT) (MB)    (MI)  (FT/S)
NY HARB ENTRANCE 1800            44 46   50/ 14/ 16 1024.4          3/ 4
4S FIRE IS       1800               47                N/A           4/ 5
20S FIRE ISLAND  1700            49 50              1025.5          3/ 5
23SW MTP         1800                                 N/A           5/ 5
HUDSON CANYON    1800            49 55  100/  6/  8 1023.5          3/ 8
EXECUTION ROCKS  1800            40 41   60/ 16/ 19   N/A
WESTERN LI SOUND 1700            40      60/ 16/ 17   N/A           2/ 3
CENTRAL LI SOUND 1700            43 44   80/ 16/ 17   N/A           1
EASTERN LI SOUND NOT AVBL
ROBBINS REEF     1800            41                 1023.6
$$


>>>>>>>>>>>>>>>>>>>>>>>>>>>> KEY <<<<<<<<<<<<<<<<<<<<<<<<<<<
>                                                          <
>     SKY/WX - SKY CONDITION/PRESENT WEATHER               <
>     TMP    - TEMPERATURE IN FAHRENHEIT                   <
>     DP     - DEWPOINT IN FAHRENHEIT                      <
>     RH     - RELATIVE HUMIDITY IN PERCENT                <
>     WIND   - DIRECTION AND SPEED IN MPH                  <
>     PRES   - MEAN SEA LEVEL PRESSURE IN INCHES OF HG     <
>     WCI    - WIND CHILL INDEX                            <
>     VSB    - VISIBILITY IN MILES                         <
>     HX     - HEAT INDEX                                  <
>     TC     - TEMPERATURE IN CELSIUS                      <
>     VRB    - VARIABLE WIND DIRECTION                     <
>                                                          <
>>>>>>>>>>>>>>>>>>>>>>>>>>>> KEY <<<<<<<<<<<<<<<<<<<<<<<<<<<




USA.gov is the U.S. government's official web portal to all federal, state and local government web resources and services.